Overview Statistics Trail Chart Weather Telemetry Raw packets
 

This is the latest recevied weather packets stored in our database for station/object IU3NMQ-10. If no packets are shown the sender has not sent any weather packets the latest 10 day(s).

<< 1 2 3 4 5 6 >>
Time Temp. Humidity Pressure Rain* Wind** Luminosity Snow
1788160708 27.78° C 64% 1010.8 hPa - - - -
1788159805 27.22° C 65% 1010.7 hPa - - - -
1788158905 26.67° C 66% 1010.6 hPa - - - -
1788158005 26.11° C 67% 1010.7 hPa - - - -
1788157104 25.56° C 68% 1010.6 hPa - - - -
1788156204 25° C 67% 1010.7 hPa - - - -
1788155304 24.44° C 69% 1010.6 hPa - - - -
1788154404 23.89° C 69% 1010.5 hPa - - - -
1788153538 23.89° C 72% 1010.3 hPa - - - -
1788153504 23.89° C 72% 1010.3 hPa - - - -
1788152604 23.33° C 70% 1010.1 hPa - - - -
1788151704 23.33° C 70% 1010 hPa - - - -
1788150873 23.33° C 71% 1009.9 hPa - - - -
1788150803 23.33° C 71% 1009.9 hPa - - - -
1788149903 23.33° C 70% 1010.1 hPa - - - -
1788149003 23.33° C 71% 1010.2 hPa - - - -
1788148103 23.33° C 70% 1010.2 hPa - - - -
1788147203 23.33° C 72% 1010.3 hPa - - - -
1788146303 23.33° C 70% 1010.4 hPa - - - -
1788145403 23.33° C 72% 1010.5 hPa - - - -
1788144502 23.33° C 73% 1010.4 hPa - - - -
1788143602 23.33° C 71% 1010.5 hPa - - - -
1788142704 23.89° C 70% 1010.4 hPa - - - -
1788141804 23.89° C 69% 1010.5 hPa - - - -
1788140901 23.89° C 70% 1010.5 hPa - - - -

* Rain since midnight (hover to see other rain measurements)
** Current wind speed in m/s (hover to see current wind gust speed)